Weather Roundup
Issued by NWS Chicago, IL

Home | Current Version | Previous Version | Graphics & Text | Print | Product List | Glossary On
Versions: 1 2 3 4 5 6 7 8 9 10 11 12 13 14 15 16 17 18 19 20 21 22 23 24 25 26 27 28 29 30 31 32 33 34 35 36 37 38 39 40 41 42 43 44 45 46 47 48 49 50
000
NZUS59 KLOT 040900
HRRLOT

CHICAGO AREA WEATHER ROUNDUP
NATIONAL WEATHER SERVICE CHICAGO/ROMEOVILLE IL
400 AM CDT MON MAY 04 2015

NOTE: "FAIR" INDICATES FEW OR NO CLOUDS BELOW 12,000 FEET WITH NO
SIGNIFICANT WEATHER AND/OR OBSTRUCTIONS TO VISIBILITY.

* THESE STATIONS ARE NOT UNDER NWS QUALITY CONTROL. THEY ALSO MAY NOT
  REPORT WEATHER SUCH AS PRECIPITATION OR FOG.

ILZ005-006-012>014-019>023-041000-
NORTHEAST ILLINOIS

CITY           SKY/WX    TMP DP  RH WIND       PRES   REMARKS
OHARE          CLOUDY    62  52  69 W6        29.93S
MIDWAY         CLOUDY    66  51  58 SW12      29.94S
AURORA         CLOUDY    60  54  80 W6        29.95F
WAUKEGAN       NOT AVBL
DUPAGE AIRPORT CLOUDY    61  55  81 W3        29.93F
WHEELING       CLOUDY    64  53  67 W7        29.94S
NORTHERLY IS     N/A     66  49  54 SW6         N/A
$$

WIZ051-052-058>065-066-070>072-041000-
SOUTHEAST WISCONSIN

CITY           SKY/WX    TMP DP  RH WIND       PRES   REMARKS
MILWAUKEE      CLOUDY    63  53  70 VRB3      29.89S
KENOSHA*       CLOUDY    60  56  86 W7        29.90S
RACINE*        CLOUDY    64  53  67 NW3       29.90F
$$

INZ001>003-010>013-019-020-041000-
NORTHWEST INDIANA

CITY           SKY/WX    TMP DP  RH WIND       PRES   REMARKS
GARY*          NOT AVBL
MICHIGAN CITY* NOT AVBL
RENSSELAER*    NOT AVBL
$$

LMZ740>746-041000-
SOUTHERN LAKE MICHIGAN

STATION/POSITION TIME  SKY/WX   TEMP WIND        PRES    VSBY
                                AIR  DIR/SP/G
                 (UTC)          (F)  (DEG/KT/KT) (MB)    (MI)
HARRISON CRIB    0800            67  220/ 27/ 32   N/A
BURNHAM HARBOR   0800            68  210/  8/ 14   N/A
CALUMET HARBOR   0800            68  200/ 11/ 18   N/A
BURNS HARBOR     0800            66  190/ 15/ 21 1013.9F
MICHIGAN CITY    0800            67  170/ 18/ 24   N/A
$$

ABBREVIATIONS USED IN REMARKS
   TC - TEMPERATURE IN CELSIUS
  WCI - WIND CHILL INDEX
   HX - HEAT INDEX
  VSB - VISIBILITY
$$



USA.gov is the U.S. government's official web portal to all federal, state and local government web resources and services.